This is the latest recevied weather packets stored in our database for station/object SQ6ELQ-11. If no packets are shown the sender has not sent any weather packets the latest 10 day(s).
| Time | Temp. | Humidity | Pressure | Rain* | Wind** | Luminosity | Snow |
|---|---|---|---|---|---|---|---|
| 1777537569 | 7.22° C | 32% | 1030.8 hPa | 0 mm | - | - | - |
| 1777536472 | 6.67° C | 34% | 1030.7 hPa | 0 mm | - | - | - |
| 1777535405 | 6.11° C | 34% | 1030.7 hPa | 0 mm | - | - | - |
| 1777534315 | 5.56° C | 35% | 1030.7 hPa | 0 mm | - | - | - |
| 1777533221 | 5° C | 38% | 1030.6 hPa | 0 mm | - | - | - |
| 1777532140 | 5° C | 38% | 1030.7 hPa | 0 mm | - | - | - |
| 1777531071 | 2.78° C | 48% | 1030.7 hPa | 0 mm | - | - | - |
| 1777530032 | 2.78° C | 49% | 1030.7 hPa | 0 mm | - | - | - |
| 1777528877 | 1.11° C | 54% | 1030.7 hPa | 0 mm | - | - | - |
| 1777527867 | -1.11° C | 56% | 1030.4 hPa | 0 mm | - | - | - |
| 1777526853 | -2.22° C | 56% | 1030.4 hPa | 0 mm | - | - | - |
| 1777525755 | -3.33° C | 57% | 1030.4 hPa | 0 mm | - | - | - |
| 1777524669 | -4.44° C | 57% | 1030.3 hPa | 0 mm | - | - | - |
| 1777523535 | -5° C | 57% | 1030.1 hPa | 0 mm | - | - | - |
| 1777522406 | -5.56° C | 59% | 1030.2 hPa | 0 mm | - | - | - |
| 1777521337 | -6.11° C | 60% | 1030.1 hPa | 0 mm | - | - | - |
| 1777520259 | -6.11° C | 60% | 1030.1 hPa | 0 mm | - | - | - |
| 1777519182 | -6.11° C | 60% | 1029.9 hPa | 0 mm | - | - | - |
| 1777518122 | -5.56° C | 59% | 1030 hPa | 0 mm | - | - | - |
| 1777516991 | -5.56° C | 60% | 1029.9 hPa | 0 mm | - | - | - |
| 1777515901 | -5.56° C | 59% | 1029.9 hPa | 0 mm | - | - | - |
| 1777514832 | -5.56° C | 59% | 1029.9 hPa | 0 mm | - | - | - |
| 1777513701 | -5° C | 58% | 1029.7 hPa | 0 mm | - | - | - |
| 1777512559 | -5° C | 57% | 1029.7 hPa | 0 mm | - | - | - |
| 1777511472 | -5° C | 57% | 1029.6 hPa | 0 mm | - | - | - |
* Rain latest hour (hover to see other rain measurements)
** Current wind speed in m/s (hover to see current wind gust speed)